THY51N LTFM-LSZH

Flight info

Callsign THY51N
Flight time N/A
Altitude 36000
Route VADEN N618 BAKLO DCT XANEX DCT UTEKA DCT LAKIK DCT BEDOX DCT ERKIR DCT KPT L856 NEGRA
Aircraft A320/M-SDE3FGHIRWY/LB1

Departure

Time N/A
Airport İstanbul Airport (LTFM)

Arrival

Time 2026-02-19 14:43
Airport Zürich Airport (LSZH)
Time Latitude Longitude Altitude Speed Heading
2026-02-19 14:24 47.74481 10.30040 28137 ft 449 kts 265°
2026-02-19 14:24 47.74375 10.25423 27636 ft 445 kts 265°
2026-02-19 14:25 47.74265 10.20848 27145 ft 441 kts 265°
2026-02-19 14:25 47.74158 10.16316 26661 ft 437 kts 265°
2026-02-19 14:25 47.74055 10.11829 26189 ft 433 kts 265°
2026-02-19 14:25 47.73954 10.07379 25720 ft 429 kts 265°
2026-02-19 14:26 47.73850 10.02974 25260 ft 425 kts 265°
2026-02-19 14:26 47.73746 9.98599 24805 ft 421 kts 266°
2026-02-19 14:26 47.73649 9.94268 24309 ft 418 kts 266°
2026-02-19 14:26 47.73550 9.89979 23828 ft 414 kts 266°
2026-02-19 14:27 47.73445 9.85721 23352 ft 410 kts 266°
2026-02-19 14:27 47.73337 9.81510 22812 ft 407 kts 266°
2026-02-19 14:27 47.73222 9.77329 22255 ft 403 kts 266°
2026-02-19 14:27 47.73100 9.73182 21713 ft 400 kts 266°
2026-02-19 14:28 47.72972 9.69068 21172 ft 397 kts 266°
2026-02-19 14:28 47.72696 9.60943 20131 ft 391 kts 266°
2026-02-19 14:28 47.72548 9.56928 19620 ft 389 kts 266°
2026-02-19 14:29 47.72392 9.52928 19116 ft 387 kts 266°
2026-02-19 14:29 47.72211 9.48581 18568 ft 384 kts 266°
2026-02-19 14:29 47.71854 9.40719 17548 ft 378 kts 266°
2026-02-19 14:29 47.71485 9.32999 16455 ft 371 kts 266°
2026-02-19 14:30 47.71250 9.28133 15779 ft 366 kts 266°
2026-02-19 14:30 47.71292 9.24385 15255 ft 362 kts 273°
2026-02-19 14:30 47.71465 9.20672 14748 ft 358 kts 274°
2026-02-19 14:30 47.71644 9.17002 14241 ft 354 kts 274°
2026-02-19 14:31 47.71823 9.13369 13747 ft 350 kts 274°
2026-02-19 14:31 47.72000 9.09786 13229 ft 346 kts 274°
2026-02-19 14:31 47.72177 9.06241 12683 ft 342 kts 274°
2026-02-19 14:31 47.72350 9.02782 12151 ft 339 kts 274°
2026-02-19 14:32 47.72523 8.99303 11627 ft 336 kts 274°
2026-02-19 14:32 47.72858 8.92527 10703 ft 319 kts 274°
2026-02-19 14:32 47.73016 8.89282 10241 ft 311 kts 274°
2026-02-19 14:33 47.73169 8.86118 9801 ft 304 kts 274°
2026-02-19 14:33 47.73317 8.83018 9346 ft 299 kts 274°
2026-02-19 14:33 47.73464 8.79998 8875 ft 287 kts 274°
2026-02-19 14:33 47.73610 8.77101 8478 ft 275 kts 274°
2026-02-19 14:34 47.73756 8.74314 8078 ft 266 kts 274°
2026-02-19 14:34 47.73901 8.71612 7695 ft 258 kts 274°
2026-02-19 14:34 47.74050 8.68988 7314 ft 252 kts 274°
2026-02-19 14:34 47.74195 8.66437 6931 ft 245 kts 274°
2026-02-19 14:35 47.74341 8.63950 6552 ft 238 kts 274°
2026-02-19 14:35 47.74489 8.61529 6172 ft 232 kts 273°
2026-02-19 14:35 47.74642 8.59171 5786 ft 227 kts 274°
2026-02-19 14:35 47.74797 8.56870 5388 ft 221 kts 274°
2026-02-19 14:36 47.74942 8.54653 5092 ft 209 kts 270°
2026-02-19 14:36 47.73718 8.51108 4577 ft 200 kts 219°
2026-02-19 14:36 47.72555 8.49943 4321 ft 202 kts 214°
2026-02-19 14:37 47.71389 8.48876 4127 ft 201 kts 214°
2026-02-19 14:37 47.70194 8.47792 4017 ft 202 kts 213°
2026-02-19 14:37 47.69008 8.46714 3990 ft 197 kts 214°
2026-02-19 14:37 47.67846 8.45662 3988 ft 195 kts 214°
2026-02-19 14:38 47.66687 8.44618 3990 ft 195 kts 214°
2026-02-19 14:38 47.65525 8.43580 3989 ft 195 kts 213°
2026-02-19 14:38 47.64362 8.42538 3989 ft 195 kts 213°
2026-02-19 14:38 47.63203 8.41501 3996 ft 194 kts 214°
2026-02-19 14:39 47.62050 8.40477 3997 ft 192 kts 214°
2026-02-19 14:39 47.60829 8.39662 3990 ft 194 kts 197°
2026-02-19 14:39 47.59949 8.39496 3993 ft 193 kts 185°
2026-02-19 14:39 47.58629 8.39848 3994 ft 197 kts 164°
2026-02-19 14:40 47.57447 8.40932 3963 ft 205 kts 144°
2026-02-19 14:40 47.55413 8.43738 3472 ft 190 kts 142°
2026-02-19 14:40 47.54475 8.45030 3205 ft 178 kts 142°
2026-02-19 14:41 47.53609 8.46219 2990 ft 162 kts 143°
2026-02-19 14:41 47.52821 8.47300 2782 ft 150 kts 142°
2026-02-19 14:41 47.52069 8.48327 2564 ft 145 kts 141°
2026-02-19 14:41 47.51334 8.49332 2340 ft 143 kts 139°
2026-02-19 14:42 47.50602 8.50332 2122 ft 143 kts 139°
2026-02-19 14:42 47.49874 8.51328 1911 ft 142 kts 137°
2026-02-19 14:42 47.49150 8.52324 1712 ft 142 kts 136°
2026-02-19 14:42 47.48430 8.53319 1518 ft 142 kts 135°
2026-02-19 14:43 47.47708 8.54294 1406 ft 132 kts 138°
2026-02-19 14:43 47.47161 8.55042 1386 ft 82 kts 137°
2026-02-19 14:43 47.46852 8.55460 1396 ft 47 kts 137°
2026-02-19 14:43 47.46657 8.55641 1397 ft 26 kts 165°
2026-02-19 14:44 47.46492 8.55716 1402 ft 16 kts 169°
2026-02-19 14:44 47.46304 8.55864 1406 ft 15 kts 133°
2026-02-19 14:44 47.46234 8.55853 1407 ft 12 kts 249°
2026-02-19 14:45 47.46239 8.55730 1408 ft 13 kts 276°
2026-02-19 14:45 47.46250 8.55579 1401 ft 17 kts 277°
2026-02-19 14:45 47.46262 8.55389 1396 ft 20 kts 274°
2026-02-19 14:45 47.46280 8.55171 1393 ft 23 kts 275°
2026-02-19 14:46 47.46284 8.54986 1390 ft 5 kts 242°
2026-02-19 14:46 47.46282 8.54984 1390 ft 0 kts 226°
2026-02-19 14:46 47.46282 8.54983 1390 ft 1 kts 225°
2026-02-19 14:46 47.46263 8.54956 1387 ft 6 kts 221°
2026-02-19 14:47 47.46222 8.54951 1390 ft 6 kts 167°
2026-02-19 14:47 47.46175 8.54978 1389 ft 9 kts 153°
2026-02-19 14:47 47.46111 8.55024 1395 ft 10 kts 155°
2026-02-19 14:47 47.46046 8.55069 1399 ft 10 kts 151°
2026-02-19 14:48 47.46052 8.55119 1398 ft 4 kts 59°
2026-02-19 14:48 47.46068 8.55167 1400 ft 4 kts 63°
2026-02-19 14:48 47.46069 8.55171 1400 ft 0 kts 64°